Location: Newark
(57.9389°N, 16.3988°E)
Time: 13:14:57
(UTC+00:00)

N. Korean satellite - Visible Passes

Search period start: 15 December 2019 00:00
Search period end: 25 December 2019 00:00
Orbit: 455 x 507 km, 97.2° (Epoch: 14 December)

Date Brightness Start Highest point End Pass type
(mag) Time Alt. Az. Time Alt. Az. Time Alt. Az.
15 Dec 8.3 04:25:04 10° NNE 04:28:19 32° E 04:31:29 10° SSE visible
15 Dec 7.2 05:58:32 10° N 06:01:42 31° WNW 06:04:49 10° SW visible
15 Dec 6.8 15:08:20 10° SE 15:11:53 48° ENE 15:15:25 10° N visible
15 Dec 9.2 16:42:33 10° SW 16:45:30 23° W 16:48:27 10° NW visible
16 Dec 9.3 04:00:02 10° NE 04:02:39 19° E 04:05:14 10° SE visible
16 Dec 6.6 05:32:54 10° N 05:36:22 53° WNW 05:39:45 10° SSW visible
16 Dec 8.2 16:16:27 10° SSW 16:19:54 37° W 16:23:19 10° NNW visible
17 Dec 10.0 03:35:39 10° ENE 03:36:55 12° E 03:38:12 10° ESE visible
17 Dec 6.4 05:07:24 10° NNE 05:10:56 86° ESE 05:14:25 10° SSW visible
17 Dec 8.2 06:41:46 10° NNW 06:43:51 15° NW 06:45:54 10° W visible
17 Dec 7.0 15:50:43 10° S 15:54:22 66° WSW 15:57:59 10° NNW visible
18 Dec 7.5 04:42:01 10° NNE 04:45:26 47° E 04:48:47 10° S visible
18 Dec 7.7 06:15:48 10° N 06:18:38 23° WNW 06:21:24 10° WSW visible
18 Dec 6.5 15:25:16 10° SSE 15:28:54 71° ENE 15:32:31 10° NNW visible
18 Dec 9.8 17:00:23 10° SW 17:02:44 16° W 17:05:03 10° NW visible
19 Dec 8.7 04:16:47 10° NE 04:19:50 27° E 04:22:50 10° SSE visible
19 Dec 7.0 05:50:04 10° N 05:53:20 36° WNW 05:56:32 10° SW visible
19 Dec 7.0 15:00:05 10° SE 15:03:31 41° ENE 15:06:56 10° N visible
19 Dec 8.9 16:33:56 10° SSW 16:37:03 26° W 16:40:09 10° NW visible
20 Dec 9.5 03:51:52 10° NE 03:54:09 16° E 03:56:24 10° SE visible
20 Dec 6.4 05:24:29 10° N 05:27:58 63° WNW 05:31:23 10° SSW visible
20 Dec 7.8 16:07:57 10° S 16:11:28 44° W 16:14:56 10° NNW visible
21 Dec 6.7 04:59:00 10° NNE 05:02:30 71° ESE 05:05:57 10° S visible
21 Dec 8.0 06:33:11 10° NNW 06:35:30 17° NW 06:37:48 10° W visible
21 Dec 6.7 15:42:19 10° SSE 15:45:57 79° WSW 15:49:33 10° NNW visible
21 Dec 10.1 17:18:47 10° WSW 17:19:58 11° W 17:21:09 10° WNW visible
22 Dec 7.9 04:33:39 10° NNE 04:36:57 39° E 04:40:13 10° SSE visible
22 Dec 7.4 06:07:18 10° N 06:10:15 26° WNW 06:13:11 10° WSW visible
22 Dec 6.6 15:16:57 10° SSE 15:20:31 59° ENE 15:24:02 10° N visible
22 Dec 9.5 16:51:38 10° SW 16:54:14 19° W 16:56:50 10° NW visible
23 Dec 9.0 04:08:31 10° NE 04:11:20 23° E 04:14:08 10° SSE visible
23 Dec 6.8 05:41:36 10° N 05:44:56 43° WNW 05:48:12 10° SW visible
23 Dec 7.2 14:51:51 10° SE 14:55:09 34° ENE 14:58:24 10° N visible
23 Dec 8.6 16:25:21 10° SSW 16:28:35 30° W 16:31:48 10° NNW visible
24 Dec 9.7 03:43:47 10° NE 03:45:37 14° E 03:47:27 10° ESE visible
24 Dec 6.3 05:16:02 10° NNE 05:19:32 77° WNW 05:22:57 10° SSW visible
24 Dec 7.4 15:59:29 10° S 16:03:01 53° W 16:06:31 10° NNW visible
